EN

Hourly Weather AlMudaina

Today, 16 January, Saturday

Time Temperature Precipitation Wind Pressure Humidity
00:00 +5°C° 0 mm 2 mps 749 mmHg 76%
01:00 +5°C° 0 mm 2 mps 749 mmHg 77%
02:00 +4°C° 0 mm 2 mps 749 mmHg 77%
03:00 +4°C° 0 mm 2 mps 749 mmHg 78%
04:00 +4°C° 0 mm 2 mps 749 mmHg 77%
05:00 +3°C° 0 mm 2 mps 749 mmHg 76%
06:00 +3°C° 0 mm 2 mps 749 mmHg 75%
07:00 +4°C° 0 mm 2 mps 749 mmHg 72%
08:00 +5°C° 0 mm 2 mps 749 mmHg 69%
09:00 +5°C° 0 mm 2 mps 750 mmHg 66%
10:00 +8°C° 0 mm 2 mps 750 mmHg 60%
11:00 +10°C° 0 mm 2 mps 750 mmHg 53%
12:00 +13°C° 0 mm 3 mps 750 mmHg 46%
13:00 +14°C° 0 mm 2 mps 750 mmHg 45%
14:00 +15°C° 0 mm 2 mps 749 mmHg 44%
15:00 +15°C° 0 mm 2 mps 749 mmHg 44%
16:00 +14°C° 0 mm 2 mps 749 mmHg 50%
17:00 +12°C° 0 mm 2 mps 749 mmHg 56%
18:00 +9°C° 0 mm 2 mps 749 mmHg 62%
19:00 +8°C° 0 mm 2 mps 750 mmHg 63%
20:00 +9°C° 0 mm 1 mps 750 mmHg 63%
21:00 +8°C° 0 mm 1 mps 751 mmHg 64%
22:00 +8°C° 0 mm 1 mps 751 mmHg 64%
23:00 +7°C° 0 mm 1 mps 751 mmHg 63%

Tomorrow, 17 January, Sunday

Time Temperature Precipitation Wind Pressure Humidity
00:00 +7°C° 0 mm 1 mps 751 mmHg 63%
01:00 +7°C° 0 mm 1 mps 751 mmHg 62%
02:00 +6°C° 0 mm 1 mps 751 mmHg 62%
03:00 +6°C° 0 mm 1 mps 751 mmHg 61%
04:00 +6°C° 0 mm 1 mps 751 mmHg 59%
05:00 +6°C° 0 mm 1 mps 751 mmHg 58%
06:00 +5°C° 0 mm 1 mps 750 mmHg 56%
07:00 +6°C° 0 mm 1 mps 751 mmHg 55%
08:00 +6°C° 0 mm 2 mps 751 mmHg 54%
09:00 +7°C° 0 mm 2 mps 751 mmHg 53%
10:00 +9°C° 0 mm 2 mps 751 mmHg 48%
11:00 +12°C° 0 mm 2 mps 751 mmHg 44%
12:00 +15°C° 0 mm 2 mps 751 mmHg 39%
13:00 +15°C° 0 mm 1 mps 750 mmHg 40%
14:00 +16°C° 0 mm 1 mps 750 mmHg 40%
15:00 +16°C° 0 mm 1 mps 749 mmHg 40%
16:00 +14°C° 0 mm 1 mps 749 mmHg 46%
17:00 +12°C° 0 mm 1 mps 749 mmHg 51%
18:00 +10°C° 0 mm 1 mps 749 mmHg 57%
19:00 +10°C° 0 mm 1 mps 749 mmHg 58%
20:00 +9°C° 0 mm 1 mps 749 mmHg 60%
21:00 +9°C° 0 mm 1 mps 750 mmHg 61%
22:00 +8°C° 0 mm 1 mps 750 mmHg 62%
23:00 +8°C° 0 mm 1 mps 750 mmHg 63%

Day after tomorrow, 18 January, Monday

Time Temperature Precipitation Wind Pressure Humidity
00:00 +8°C° 0 mm 1 mps 750 mmHg 64%
01:00 +7°C° 0 mm 1 mps 750 mmHg 64%
02:00 +7°C° 0 mm 1 mps 749 mmHg 65%
03:00 +7°C° 0 mm 1 mps 749 mmHg 65%
04:00 +7°C° 0 mm 1 mps 749 mmHg 64%
05:00 +6°C° 0 mm 1 mps 749 mmHg 63%
06:00 +6°C° 0 mm 1 mps 749 mmHg 63%
07:00 +7°C° 0 mm 1 mps 749 mmHg 61%
08:00 +8°C° 0 mm 1 mps 749 mmHg 60%
09:00 +9°C° 0 mm 1 mps 750 mmHg 59%
10:00 +11°C° 0 mm 1 mps 750 mmHg 54%
11:00 +13°C° 0 mm 1 mps 750 mmHg 48%
12:00 +15°C° 0 mm 1 mps 749 mmHg 43%
13:00 +15°C° 0 mm 1 mps 749 mmHg 43%
14:00 +16°C° 0 mm 1 mps 749 mmHg 43%
15:00 +16°C° 0 mm 1 mps 748 mmHg 42%
16:00 +14°C° 0 mm 1 mps 748 mmHg 49%
17:00 +12°C° 0 mm 1 mps 748 mmHg 56%
18:00 +9°C° 0 mm 0 mps 748 mmHg 62%
19:00 +9°C° 0 mm 0 mps 749 mmHg 64%
20:00 +8°C° 0 mm 0 mps 749 mmHg 65%
21:00 +8°C° 0 mm 0 mps 749 mmHg 67%
22:00 +7°C° 0 mm 0 mps 749 mmHg 67%
23:00 +7°C° 0 mm 0 mps 749 mmHg 68%

19 January, Tuesday

Time Temperature Precipitation Wind Pressure Humidity
00:00 +7°C° 0 mm 0 mps 749 mmHg 68%
01:00 +6°C° 0 mm 0 mps 749 mmHg 71%
02:00 +6°C° 0 mm 0 mps 748 mmHg 73%
03:00 +6°C° 0 mm 0 mps 748 mmHg 75%
04:00 +7°C° 0 mm 1 mps 748 mmHg 77%
05:00 +6°C° 0 mm 1 mps 748 mmHg 78%
06:00 +6°C° 0 mm 1 mps 748 mmHg 79%
07:00 +7°C° 0 mm 1 mps 748 mmHg 77%
08:00 +8°C° 0 mm 1 mps 748 mmHg 75%
09:00 +7°C° 0 mm 0 mps 748 mmHg 73%
10:00 +10°C° 0 mm 1 mps 748 mmHg 67%
11:00 +11°C° 0 mm 1 mps 748 mmHg 62%
12:00 +13°C° 0 mm 1 mps 747 mmHg 56%
13:00 +13°C° 0 mm 1 mps 747 mmHg 55%
14:00 +14°C° 0 mm 2 mps 746 mmHg 55%
15:00 +15°C° 0 mm 2 mps 746 mmHg 54%
16:00 +13°C° 0 mm 2 mps 746 mmHg 62%
17:00 +12°C° 0 mm 1 mps 745 mmHg 70%
18:00 +10°C° 0 mm 1 mps 745 mmHg 78%
19:00 +10°C° 0 mm 1 mps 745 mmHg 81%
20:00 +9°C° 0 mm 1 mps 745 mmHg 83%
21:00 +9°C° 0 mm 1 mps 745 mmHg 86%
22:00 +9°C° 0 mm 1 mps 745 mmHg 87%
23:00 +9°C° 0 mm 1 mps 745 mmHg 88%

20 January, Wednesday

Time Temperature Precipitation Wind Pressure Humidity
00:00 +9°C° 0 mm 1 mps 744 mmHg 89%
01:00 +9°C° 0 mm 1 mps 744 mmHg 88%
02:00 +8°C° 0 mm 2 mps 743 mmHg 86%
03:00 +8°C° 0 mm 2 mps 743 mmHg 84%
04:00 +8°C° 0 mm 2 mps 742 mmHg 82%
05:00 +8°C° 0 mm 3 mps 742 mmHg 79%
06:00 +9°C° 0 mm 3 mps 741 mmHg 77%
07:00 +9°C° 0.1 mm 3 mps 741 mmHg 77%
08:00 +9°C° 0.1 mm 3 mps 740 mmHg 77%
09:00 +10°C° 0.1 mm 4 mps 740 mmHg 76%
10:00 +9°C° 1.9 mm 5 mps 740 mmHg 81%
11:00 +9°C° 1.9 mm 6 mps 739 mmHg 87%
12:00 +10°C° 1.9 mm 7 mps 739 mmHg 92%
13:00 +11°C° 3.4 mm 7 mps 739 mmHg 89%
14:00 +13°C° 3.4 mm 6 mps 738 mmHg 87%
15:00 +13°C° 3.4 mm 6 mps 738 mmHg 85%
16:00 +13°C° 0.3 mm 6 mps 738 mmHg 86%
17:00 +12°C° 0.3 mm 5 mps 739 mmHg 88%
18:00 +11°C° 0.3 mm 4 mps 739 mmHg 89%
19:00 +11°C° 0.4 mm 4 mps 740 mmHg 91%
20:00 +11°C° 0.4 mm 4 mps 740 mmHg 92%
21:00 +11°C° 0.4 mm 4 mps 741 mmHg 94%
22:00 +11°C° 0.1 mm 4 mps 741 mmHg 95%
23:00 +10°C° 0.1 mm 3 mps 742 mmHg 96%

21 January, Thursday

Time Temperature Precipitation Wind Pressure Humidity
00:00 +10°C° 0.1 mm 3 mps 742 mmHg 97%
01:00 +10°C° 0 mm 3 mps 742 mmHg 97%
02:00 +10°C° 0 mm 2 mps 743 mmHg 97%
03:00 +9°C° 0 mm 2 mps 743 mmHg 97%
04:00 +9°C° 0 mm 2 mps 743 mmHg 97%
05:00 +9°C° 0 mm 2 mps 743 mmHg 97%
06:00 +9°C° 0 mm 2 mps 743 mmHg 97%
07:00 +10°C° 0 mm 2 mps 744 mmHg 97%
08:00 +10°C° 0 mm 2 mps 744 mmHg 96%
09:00 +10°C° 0 mm 2 mps 744 mmHg 95%
10:00 +12°C° 0.1 mm 2 mps 744 mmHg 92%
11:00 +12°C° 0.1 mm 3 mps 744 mmHg 89%
12:00 +13°C° 0.1 mm 3 mps 744 mmHg 86%
13:00 +13°C° 0.2 mm 4 mps 743 mmHg 85%
14:00 +13°C° 0.2 mm 5 mps 743 mmHg 85%
15:00 +14°C° 0.2 mm 6 mps 743 mmHg 84%
16:00 +13°C° 0.1 mm 6 mps 743 mmHg 85%
17:00 +11°C° 0.1 mm 6 mps 743 mmHg 87%
18:00 +12°C° 0.1 mm 5 mps 743 mmHg 88%
19:00 +12°C° 0.1 mm 5 mps 743 mmHg 89%
20:00 +12°C° 0.1 mm 5 mps 743 mmHg 90%
21:00 +11°C° 0.1 mm 6 mps 743 mmHg 92%
22:00 +11°C° 0.6 mm 6 mps 743 mmHg 92%
23:00 +11°C° 0.6 mm 6 mps 743 mmHg 93%
Show more